Powrót do katalogu

VELOX-AM

LostNaukaVLEO
NORAD 57482·PAYLOAD·🇸🇬 Singapore

Wystrzelony Jul 30, 2023 z Satish Dhawan Space Centre

Loading…

Następne Przeloty (najbliższe 24 godziny)

TLE

NieaktualneSource: Space-Track

Epoka: Jan 10, 2024, 19:19 UTC

1 57482U 23109B   24010.80486117  .00011208  00000-0  52712-3 0  9995
2 57482   5.0045 110.9764 0011546 327.6281  32.3119 15.15302227 25000

Śledź VELOX-AM w czasie rzeczywistym z AllMySat

Download on the App Store